Content
SEND FEEDBACK

United States of America Flag

AIEA - KEAIWA HEIAU STATE PARK, HAWAII


Home > North America > United States > Hawaii
Elevation: 780 feet     Latitude: 21 24N     Longitude: 157 55W

WEATHER
 
SELECT A DAY
Number of Records: 193,821;   Date Range: 1/1/95 - 3/22/16
 
SHARE

PRINT THIS DATA

[ ← Previous Day ]
WEATHER ALMANAC - FEBRUARY 15, 2013
[ Next Day → ]
[ °C ]   °F
Weather ElementAverageHighLow
Temperature75.2 °F82 °F (2:53 pm)70 °F (2:53 am)
Dewpoint59.7 °F64 °F (6:53 pm)55.9 °F (11:53 am)
Humidity59.1 %71 % (2:53 am)43 % (11:53 am)
Barometer30.06 in30.12 in (9:53 pm)30.01 in (2:53 pm)
Wind Speed13.6 mph19.6 mph (12:53 pm)
Wind Gust27.6 mph (3:53 pm)
Weather ElementAverage
Visibility10 mi
Wind DirectionENE (63.5 °)

Weather ElementTotal
Precipitation---
Cooling Degree Days11 (Base 65)
Growing Degree Days26 (Base 50)
Averaged from 23 records on February 15, 2013
WEATHER CONDITIONS BREAKOUT
WIND DIRECTION BREAKOUT
WEATHER BY HOUR - FEBRUARY 15, 2013
[ °C ]   °F
Local TimeTemperatureDewpointHumidityBarometerVisibilityWind DirectionWind SpeedGust SpeedPrecipitationEventsConditions
1:53 AM71.1 °F57.9 °F63 %30.06 in10.0 miNE (40°)8.1 mphScattered Clouds
2:53 AM70.0 °F60.1 °F71 %30.04 in10.0 miENE (70°)9.2 mph0.00 inRainLight Rain
3:53 AM71.1 °F59.0 °F66 %30.03 in10.0 miENE (60°)12.7 mph0.00 inScattered Clouds
4:53 AM71.1 °F57.9 °F63 %30.03 in10.0 miEast (80°)17.3 mph23.0 mphScattered Clouds
5:53 AM70.0 °F57.0 °F63 %30.04 in10.0 miEast (80°)10.4 mphPartly Cloudy
6:53 AM71.1 °F57.9 °F63 %30.05 in10.0 miEast (80°)11.5 mphScattered Clouds
7:53 AM72.0 °F57.9 °F61 %30.06 in10.0 miENE (60°)8.1 mphScattered Clouds
8:53 AM73.0 °F60.1 °F64 %30.08 in10.0 miENE (70°)9.2 mph0.00 inScattered Clouds
9:53 AM75.9 °F59.0 °F56 %30.09 in10.0 miEast (100°)12.7 mphScattered Clouds
10:53 AM79.0 °F57.0 °F47 %30.09 in10.0 miENE (70°)11.5 mph19.6 mphScattered Clouds
11:53 AM80.1 °F55.9 °F43 %30.06 in10.0 miENE (60°)16.1 mph23.0 mphScattered Clouds
12:53 PM80.1 °F57.0 °F45 %30.04 in10.0 miENE (60°)19.6 mphScattered Clouds
1:53 PM81.0 °F57.0 °F44 %30.03 in10.0 miENE (70°)13.8 mph21.9 mphScattered Clouds
2:53 PM82.0 °F60.1 °F47 %30.01 in10.0 miENE (60°)13.8 mphScattered Clouds
3:53 PM82.0 °F60.1 °F47 %30.02 in10.0 miENE (70°)19.6 mph27.6 mphScattered Clouds
4:53 PM79.0 °F62.1 °F56 %30.04 in10.0 miENE (60°)18.4 mph25.3 mphScattered Clouds
5:53 PM77.0 °F63.0 °F62 %30.05 in10.0 miENE (60°)16.1 mphScattered Clouds
6:53 PM75.0 °F64.0 °F69 %30.08 in10.0 miNE (50°)17.3 mph0.00 inRainLight Rain
7:53 PM75.0 °F63.0 °F66 %30.09 in10.0 miNE (50°)15.0 mph20.7 mph0.00 inMostly Cloudy
8:53 PM75.0 °F61.0 °F62 %30.11 in10.0 miENE (60°)10.4 mphScattered Clouds
9:53 PM73.9 °F62.1 °F66 %30.12 in10.0 miNE (50°)9.2 mph16.1 mphPartly Cloudy
10:53 PM73.0 °F62.1 °F68 %30.12 in10.0 miNE (50°)18.4 mphPartly Cloudy
11:53 PM73.0 °F62.1 °F68 %30.12 in10.0 miNE (50°)15.0 mphPartly Cloudy
Hourly data recorded from PHNL, located miles away from Aiea - Keaiwa Heiau State Park, Hawaii




STORIES FROM OUR PARTNERS